Погода в Турках

Россия / Саратовская область     51˚59′09″N   43˚16′21″E
темп.,
°C
ветер,
м/с
пор.,
м/с
влажн.,
%
обл.,
%
осадки,
мм/ч
давл.,
гПа
погр.,
м
16 января, сб
сб1601:00−9˚зсз4795100 3.4 1003296
04:00−10˚зсз6995100 5.9 1002470
07:00−11˚з61393100 1.3 1002528
10:00−11˚зюз61194100 1.6 1003404
13:00−10˚зюз61293100 0.1 1004446
16:00−8˚зюз71293100 0.4 1005691
19:00−12˚зюз81492100 0.3 1006504
22:00−14˚зюз71493100 0.4 1007477
17 января, вс
вс1701:00−16˚зюз61194100 0.1 1009426
04:00−18˚зюз51096100 0.2 1011281
07:00−21˚юз4899100 0.0 1012171
10:00−22˚зюз369996 0.1 1014107
13:00−19˚зюз249666 0.0 1014160
16:00−19˚зюз229642 0.0 101540
19:00−23˚з12991 0.0 101620
22:00−24˚ююз1110036 0.0 101720
18 января, пн
пн1801:00−24˚ссв0110094 0.0 101820
04:00−23˚ссв119797 0.0 101720
07:00−22˚св239693 0.0 101830
10:00−21˚ссв119596 0.0 101927
13:00−18˚ссв2290100 0.0 1018220
16:00−17˚с2290100 0.0 1017259
19:00−18˚ссз3493100 0.0 1017233
22:00−18˚ссз2497100 0.3 1017204
19 января, вт
вт1901:00−19˚ссз229799 0.2 101749
04:00−20˚сз2297100 0.3 101746
07:00−19˚зсз2398100 0.2 1017104
10:00−19˚зсз2498100 0.4 1017197
13:00−18˚зсз3494100 0.2 1017317
16:00−18˚зсз3595100 0.3 1016343
19:00−19˚зсз3698100 0.1 1016233
22:00−18˚сз3697100 0.4 1017236
20 января, ср
ср2001:00−19˚зсз3697100 0.1 1018224
04:00−19˚зсз369796 0.3 1019198
07:00−21˚зсз359687 0.1 1020132
10:00−23˚зсз349570 0.1 102262
13:00−20˚зсз359535 0.0 1023220
16:00−19˚зсз359546 0.0 1024188
19:00−22˚зсз33970 0.0 102622
22:00−22˚зсз23981 0.0 102720